This demonstration page uses our WeatherBlox Daily Observations layout. Learn more.

Left ArrowRight Arrow

39.08367, -84.50855

Hourly Observations for April 4, 2019

Temp ( °F °C ) Dew Point ( °F °C ) Humidity (%) Winds ( mph kmh ) Pressure ( in mb ) Visibility ( mi km ) Precip ( " mm )
12:53 am 00:53 Clear 46 7.8 38 3.3 73 73 Calm 30.33 1027 10 16.0934 0 0
1:53 am 01:53 Clear 43 6.1 38 3.3 82 82 Calm 30.33 1027 10 16.0934 0 0
2:53 am 02:53 Clear 43 6.1 38 3.3 82 82 Calm 30.33 1027 10 16.0934 0 0
3:53 am 03:53 Clear 44 6.7 36 2.2 73 73 Calm 30.33 1027 10 16.0934 0 0
4:53 am 04:53 Mostly Cloudy 44 6.7 39 3.9 83 83 VRB 3 6 30.33 1027 10 16.0934 0 0
5:53 am 05:53 Cloudy 46 7.8 38 3.3 73 73 ENE 3 6 30.32 1027 10 16.0934 0 0
6:53 am 06:53 Mostly Clear 45 7.2 38 3.3 77 77 Calm 30.34 1027 10 16.0934 0 0
7:53 am 07:53 Partly Cloudy 46 7.8 36 2.2 68 68 NE 5 7 30.35 1028 10 16.0934 0 0
8:53 am 08:53 Sunny 51 10.6 35 1.7 54 54 ENE 6 9 30.35 1028 10 16.0934 0 0
9:53 am 09:53 Mostly Sunny 54 12.2 33 0.6 45 45 NE 8 13 30.35 1028 10 16.0934 0 0
10:53 am 10:53 Sunny 60 15.6 32 0 35 35 ENE 10 17 30.33 1027 10 16.0934 0 0
11:53 am 11:53 Sunny 63 17.2 34 1.1 34 34 ENE 14 22 30.31 1027 10 16.0934 0 0
12:53 pm 12:53 Sunny 66 18.9 36 2.2 33 33 NE 17 28 30.29 1026 10 16.0934 0 0
1:53 pm 13:53 Sunny 65 18.3 35 1.7 33 33 E 9 15 30.26 1025 10 16.0934 0 0
2:53 pm 14:53 Sunny 69 20.6 37 2.8 31 31 ENE 16 26 30.23 1024 10 16.0934 0 0
3:53 pm 15:53 Sunny 67 19.4 36 2.2 32 32 NE 15 24 30.19 1023 10 16.0934 0 0
4:53 pm 16:53 Sunny 68 20 36 2.2 31 31 NE 16 26 30.17 1022 10 16.0934 0 0
5:53 pm 17:53 Mostly Cloudy 64 17.8 37 2.8 37 37 NE 17 28 30.16 1022 10 16.0934 0 0
6:53 pm 18:53 Sunny 62 16.7 37 2.8 40 40 ENE 15 24 30.14 1021 10 16.0934 0 0
7:53 pm 19:53 Sunny 59 15 38 3.3 46 46 NE 10 17 30.13 1020 10 16.0934 0 0
8:53 pm 20:53 Mostly Cloudy 58 14.4 39 3.9 50 50 ENE 7 11 30.14 1021 10 16.0934 0 0
9:53 pm 21:53 Mostly Cloudy 58 14.4 38 3.3 48 48 NE 10 17 30.12 1020 10 16.0934 0 0
10:53 pm 22:53 Cloudy 57 13.9 38 3.3 49 49 VRB 5 7 30.14 1021 10 16.0934 0 0
11:53 pm 23:53 Cloudy 55 12.8 39 3.9 55 55 NNE 6 9 30.16 1021 10 16.0934 0 0

Powered by AerisWeather